Pagina principale
METAR-TAF:

METAR-TAF

Aeroporti :

Trieste, Italia

latitudine: 45-39N, longitudine: 013-45E, altezza: 8 m

Osservazione

Il bollettino è stato emesso 11 ore e 36 minuti fa, alle 17:55 UTC
Vento calmo
Temperature 26°C
Umidità 65%
Pressione 1011 hPa
Visibilità 10 km o più
Nubi sparse ad un'altezza di 3000 ft

METAR: LIVT 021755Z 00000KT 9999 SCT030 26/19 Q1011 RMK BKN SCT060 QUK 0 QUL 0 VIS MAR 20 KM VIS MIN 9999

Ora: 07:31 (05:31 UTC)


TAF: mancante

Osservazioni e previsioni meteorologiche di più di 4000 aeroporti (messaggi METAR e TAF).

Le stazioni disponibili sono rappresentate dai dischi gialli e rossi sulla carta.

Puntare il mouse per vedere il nome della stazione.

Clicca sopra per visualizzare le osservazioni e previsioni meteorologiche.

Per cambiare la mappa : fare clic sui pulsanti verdi con una croce nera per ingrandire, il pulsante verde con un trattino per diminuire, o sulla freccia verde per le mappe adiacenti.


METAR-TAF: